Flag for Germany Weather past 2 weeks in Nuremberg, Bavaria, Germany

Now
41 °F

Passing clouds.


Feels Like: 33 °F
Forecast: 37 / 44 °F
Wind: 16 mph from Southwest

Location: Nuernberg

Current Time: Dec 21, 2014 at 5:40:10 PM

Latest Report: Dec 21, 2014 at 5:20 PM


Visibility: N/A

Pressure: 30.39 "Hg

Humidity: 81%

Dew point: 36 °F

Location of NurembergLocation

Historic Weather in Nuremberg — Graph

°F

Nuremberg temperature yesterday

Maximum temperature yesterday: 43 °F (at 1:20 PM)
Minimum temperature yesterday: 36 °F (at 10:20 PM)
Average temperature yesterday: 39 °F

Past Weeks' High & Low Weather Summary

 TemperatureHumidityPressure
High54 °F (Dec 18, 9:20 PM)100% (Dec 7, 1:20 AM)30.45 "Hg (Dec 7, 1:20 AM)
Low23 °F (Dec 9, 3:50 AM)58% (Dec 13, 12:20 PM)29.71 "Hg (Dec 12, 3:50 PM)
Average40 °F90%30.04 "Hg
* Reported Dec 6 4:20 PM — Dec 21 4:20 PM, Nuremberg, Weather by CustomWeather, © 2014

Note: Actual official high and low records may vary slightly from our data, if they occured in-between our weather recording intervals... More about our weather records

Advertising

Nuremberg weather history for previous 24 hours

 ConditionsComfort  
Time TempWeatherWind HumidityBarometerVisibility
4:20 PM
Dec 21
41 °FPartly cloudy.13 mph81%30.39 "HgN/A
3:50 PM41 °FBroken clouds.13 mph81%30.42 "HgN/A
3:20 PM41 °FBroken clouds.17 mph81%30.42 "HgN/A
2:50 PM41 °FBroken clouds.18 mph81%30.42 "HgN/A
2:20 PM41 °FBroken clouds.14 mph81%30.42 "HgN/A
1:50 PM43 °FBroken clouds.13 mph76%30.42 "HgN/A
1:20 PM41 °FBroken clouds.17 mph81%30.42 "HgN/A
12:50 PM41 °FPartly sunny.13 mph81%30.42 "HgN/A
12:20 PM41 °FPartly sunny.14 mph81%30.45 "HgN/A
11:50 AM41 °FPartly sunny.14 mph81%30.45 "HgN/A
11:20 AM41 °FPartly sunny.12 mph81%30.45 "HgN/A
10:50 AM41 °FPartly sunny.10 mph81%30.45 "HgN/A
10:20 AM39 °FPartly sunny.10 mph93%30.45 "HgN/A
9:50 AM39 °FPartly sunny.9 mph87%30.45 "HgN/A
9:20 AM39 °FBroken clouds.8 mph87%30.45 "HgN/A
8:50 AM37 °FBroken clouds.8 mph93%30.45 "HgN/A
8:20 AM39 °FPartly sunny.9 mph87%30.42 "HgN/A
7:50 AM37 °FPassing clouds.10 mph93%30.42 "HgN/A
7:20 AM39 °FPassing clouds.10 mph87%30.42 "HgN/A
6:50 AM37 °FPassing clouds.7 mph93%30.42 "HgN/A
6:20 AM37 °FPassing clouds.9 mph87%30.39 "HgN/A
5:50 AM37 °FPassing clouds.8 mph93%30.39 "HgN/A
5:20 AM37 °FPartly cloudy.9 mph93%30.39 "HgN/A
4:50 AM37 °FPartly cloudy.10 mph93%30.39 "HgN/A
4:20 AM37 °FPartly cloudy.10 mph93%30.39 "HgN/A
3:50 AM37 °FPassing clouds.9 mph93%30.36 "HgN/A
3:20 AM37 °FPassing clouds.14 mph93%30.36 "HgN/A
2:50 AM39 °FPassing clouds.15 mph87%30.33 "HgN/A
2:20 AM39 °FPartly cloudy.13 mph87%30.30 "HgN/A
1:20 AM39 °FPassing clouds.12 mph87%30.30 "HgN/A
12:50 AM39 °FPassing clouds.14 mph87%30.27 "HgN/A
12:20 AM39 °FPassing clouds.16 mph87%30.27 "HgN/A
11:50 PM
Dec 20
37 °FPassing clouds.13 mph93%30.27 "HgN/A
11:20 PM37 °FLight rain. Partly cloudy.6 mph93%30.24 "HgN/A
10:50 PM36 °FLight rain. Passing clouds.12 mph100%30.24 "HgN/A
10:20 PM36 °FRain. Partly cloudy.14 mph93%30.24 "Hg3 mi
9:50 PM39 °FLight rain. Partly cloudy.24 mph87%30.21 "HgN/A
9:20 PM41 °FLight rain. Partly cloudy.25 mph81%30.18 "HgN/A
8:50 PM41 °FPartly cloudy.23 mph81%30.15 "HgN/A
8:20 PM41 °FPassing clouds.23 mph81%30.15 "HgN/A
7:50 PM41 °FPassing clouds.23 mph81%30.15 "HgN/A
7:20 PM41 °FPassing clouds.20 mph81%30.12 "HgN/A
6:50 PM39 °FPassing clouds.16 mph87%30.12 "HgN/A
6:20 PM39 °FPassing clouds.15 mph87%30.12 "HgN/A
5:50 PM37 °FPassing clouds.14 mph93%30.12 "HgN/A
5:20 PM39 °FLight rain. Passing clouds.16 mph87%30.12 "Hg5 mi
Weather by CustomWeather, © 2014

See weather overviewHow to use our weather pages